EUTELSAT HOTBIRD 13B

Last updated on Thu Oct 30 2025 00:02:47 GMT+0000 (Coordinated Universal Time)

1 29270U 06032A 25302.47757773 .00000166 00000+0 00000+0 0 9991 2 29270 1.0605 84.7435 0003599 124.4808 33.8960 1.00269030 44994
UTC large
Height (km)
Speed (km/s)
/
Latitude / Longitude
Inclination (degrees)
Orbital Period (minutes)
Azimuth
Elevation
Range (km)
Doppler Factor

Next 0 passes for location: London (51.5072 / 0.1276)

Sorry there are no passes over London.